| time (UTC) | temp F | wind direction | speed MPH | gust MPH | rain 1hr in | rain 24hr in | rain mn in | humidity % | barometer mb |
| 20260510084613 | 59 | 262 | 0.0 | 0.0 | 0.00 | 0.10 | 0.00 | 77 | 1009.8 |
| 20260510083058 | 59 | 354 | 0.0 | 0.0 | 0.00 | 0.10 | 0.00 | 76 | 1009.7 |
| 20260510081558 | 60 | 236 | 0.0 | 0.0 | 0.00 | 0.10 | 0.00 | 74 | 1009.1 |
| 20260510080057 | 60 | 245 | 0.0 | 0.0 | 0.00 | 0.10 | 0.00 | 74 | 1008.8 |
| 20260510074554 | 60 | 253 | 0.0 | 0.0 | 0.00 | 0.11 | 0.00 | 74 | 1008.8 |
| 20260510073102 | 60 | 249 | 0.0 | 0.0 | 0.00 | 0.11 | 0.00 | 73 | 1008.8 |
| 20260510071552 | 60 | 250 | 0.0 | 0.0 | 0.00 | 0.11 | 0.00 | 72 | 1008.8 |
| 20260510070054 | 61 | 252 | 0.0 | 0.0 | 0.00 | 0.11 | 0.00 | 72 | 1008.7 |
| 20260510064551 | 61 | 274 | 0.0 | 0.0 | 0.00 | 0.11 | 0.00 | 70 | 1009.0 |
| 20260510063049 | 62 | 248 | 0.0 | 2.0 | 0.00 | 0.11 | 0.00 | 70 | 1008.9 |
| 20260510061545 | 62 | 240 | 0.0 | 0.0 | 0.00 | 0.11 | 0.00 | 70 | 1009.1 |
| 20260510060046 | 62 | 242 | 0.0 | 0.0 | 0.00 | 0.11 | 0.00 | 71 | 1009.2 |
| 20260510054543 | 61 | 246 | 0.0 | 0.0 | 0.00 | 0.11 | 0.00 | 72 | 1009.1 |
| 20260510053041 | 62 | 243 | 0.0 | 0.0 | 0.00 | 0.11 | 0.00 | 71 | 1009.1 |
| 20260510051536 | 63 | 253 | 0.0 | 0.0 | 0.00 | 0.11 | 0.00 | 69 | 1009.1 |
| 20260510050034 | 63 | 247 | 0.0 | 0.0 | 0.00 | 0.11 | 0.00 | 67 | 1009.1 |
| 20260510044534 | 64 | 228 | 0.0 | 0.0 | 0.00 | 0.11 | 0.00 | 66 | 1009.1 |
| 20260510043029 | 65 | 243 | 0.0 | 0.0 | 0.00 | 0.11 | 0.00 | 64 | 1009.2 |
| 20260510041528 | 65 | 239 | 1.0 | 6.0 | 0.00 | 0.11 | 0.00 | 63 | 1009.1 |
| 20260510040026 | 65 | 249 | 0.0 | 0.0 | 0.00 | 0.11 | 0.00 | 63 | 1009.1 |
| 20260510034526 | 65 | 249 | 0.0 | 0.0 | 0.00 | 0.11 | 0.11 | 62 | 1009.0 |
| 20260510033024 | 65 | 241 | 0.0 | 0.0 | 0.00 | 0.11 | 0.11 | 63 | 1009.0 |
| 20260510031523 | 65 | 271 | 0.0 | 0.0 | 0.00 | 0.11 | 0.11 | 64 | 1008.9 |
| 20260510030022 | 64 | 250 | 0.0 | 0.0 | 0.00 | 0.11 | 0.11 | 65 | 1008.7 |
| 20260510024522 | 65 | 248 | 0.0 | 0.0 | 0.00 | 0.11 | 0.11 | 64 | 1008.7 |
| 20260510023021 | 66 | 247 | 0.0 | 0.0 | 0.00 | 0.11 | 0.11 | 63 | 1008.6 |
| 20260510021521 | 66 | 252 | 0.0 | 0.0 | 0.00 | 0.11 | 0.11 | 63 | 1008.4 |
| 20260510020051 | 66 | 225 | 0.0 | 0.0 | 0.00 | 0.11 | 0.11 | 62 | 1008.2 |
| 20260510014520 | 67 | 248 | 0.0 | 0.0 | 0.00 | 0.11 | 0.11 | 60 | 1008.0 |
| 20260510013020 | 68 | 247 | 0.0 | 0.0 | 0.00 | 0.11 | 0.11 | 59 | 1007.8 |
| 20260510011534 | 68 | 234 | 0.0 | 0.0 | 0.00 | 0.11 | 0.11 | 57 | 1007.6 |
| 20260510010018 | 69 | 255 | 0.0 | 0.0 | 0.00 | 0.11 | 0.11 | 56 | 1007.3 |
| 20260510004517 | 70 | 235 | 0.0 | 4.0 | 0.00 | 0.11 | 0.11 | 55 | 1007.0 |
| 20260510003017 | 71 | 238 | 0.0 | 5.0 | 0.00 | 0.11 | 0.11 | 53 | 1006.9 |
| 20260510001516 | 72 | 228 | 0.0 | 6.0 | 0.00 | 0.11 | 0.11 | 52 | 1006.6 |
| 20260510000017 | 72 | 264 | 2.0 | 7.0 | 0.00 | 0.11 | 0.11 | 51 | 1006.3 |
| 20260509234515 | 73 | 207 | 3.0 | 10.0 | 0.00 | 0.11 | 0.11 | 50 | 1006.2 |
| 20260509233014 | 73 | 144 | 0.0 | 11.0 | 0.00 | 0.11 | 0.11 | 50 | 1006.3 |
| 20260509231514 | 73 | 227 | 3.0 | 11.0 | 0.00 | 0.11 | 0.11 | 48 | 1006.2 |
| 20260509230013 | 73 | 241 | 3.0 | 11.0 | 0.00 | 0.11 | 0.11 | 50 | 1006.0 |
| 20260509224515 | 74 | 242 | 4.0 | 12.0 | 0.00 | 0.11 | 0.11 | 49 | 1006.1 |
| 20260509223012 | 74 | 124 | 4.0 | 9.0 | 0.00 | 0.11 | 0.11 | 50 | 1006.0 |
| 20260509221511 | 74 | 248 | 5.0 | 11.0 | 0.00 | 0.11 | 0.11 | 49 | 1006.0 |
| 20260509220010 | 74 | 159 | 3.0 | 12.0 | 0.00 | 0.11 | 0.11 | 49 | 1006.1 |
| 20260509214508 | 75 | 264 | 3.0 | 11.0 | 0.00 | 0.11 | 0.11 | 48 | 1006.1 |
| 20260509213007 | 75 | 212 | 1.0 | 14.0 | 0.00 | 0.11 | 0.11 | 47 | 1006.2 |
| 20260509211505 | 75 | 237 | 4.0 | 12.0 | 0.00 | 0.11 | 0.11 | 46 | 1006.2 |
| 20260509210004 | 75 | 154 | 2.0 | 10.0 | 0.00 | 0.11 | 0.11 | 48 | 1006.4 |
| 20260509204503 | 76 | 275 | 2.0 | 9.0 | 0.00 | 0.11 | 0.11 | 46 | 1006.3 |
| 20260509203100 | 76 | 262 | 3.0 | 9.0 | 0.00 | 0.11 | 0.11 | 48 | 1006.4 |
| 20260509201608 | 76 | 152 | 5.0 | 12.0 | 0.00 | 0.11 | 0.11 | 48 | 1006.7 |
| 20260509200107 | 76 | 238 | 4.0 | 11.0 | 0.00 | 0.11 | 0.11 | 50 | 1006.8 |
| 20260509194554 | 76 | 255 | 2.0 | 11.0 | 0.00 | 0.11 | 0.11 | 49 | 1006.9 |
| 20260509193052 | 74 | 266 | 1.0 | 12.0 | 0.00 | 0.11 | 0.11 | 52 | 1007.0 |
| 20260509191551 | 75 | 252 | 2.0 | 10.0 | 0.00 | 0.11 | 0.11 | 51 | 1007.1 |
| 20260509190049 | 74 | 269 | 2.0 | 10.0 | 0.00 | 0.11 | 0.11 | 53 | 1007.2 |
| 20260509184558 | 73 | 132 | 4.0 | 7.0 | 0.00 | 0.11 | 0.11 | 53 | 1007.4 |
| 20260509183047 | 74 | 215 | 1.0 | 8.0 | 0.00 | 0.11 | 0.11 | 54 | 1007.4 |
| 20260509181555 | 73 | 192 | 5.0 | 11.0 | 0.00 | 0.11 | 0.11 | 53 | 1007.5 |
| 20260509180043 | 73 | 248 | 1.0 | 5.0 | 0.00 | 0.11 | 0.11 | 57 | 1007.5 |
| 20260509174541 | 71 | 236 | 0.0 | 6.0 | 0.00 | 0.11 | 0.11 | 57 | 1007.4 |
| 20260509173041 | 70 | 240 | 1.0 | 7.0 | 0.00 | 0.11 | 0.11 | 59 | 1007.6 |
| 20260509171539 | 70 | 255 | 0.0 | 9.0 | 0.00 | 0.11 | 0.11 | 62 | 1007.5 |
| 20260509170039 | 69 | 59 | 0.0 | 7.0 | 0.00 | 0.11 | 0.11 | 62 | 1007.7 |
| 20260509165901 | 70 | 250 | 2.0 | 11.0 | 0.00 | 0.11 | 0.11 | 59 | 1008.4 |
| 20260509164543 | 69 | 252 | 1.0 | 10.0 | 0.00 | 0.11 | 0.11 | 61 | 1007.8 |
| 20260509163042 | 70 | 255 | 0.0 | 9.0 | 0.00 | 0.11 | 0.11 | 60 | 1007.7 |
| 20260509161542 | 71 | 108 | 0.0 | 6.0 | 0.00 | 0.11 | 0.11 | 63 | 1007.6 |
| 20260509160041 | 69 | 136 | 0.0 | 13.0 | 0.00 | 0.11 | 0.11 | 66 | 1007.5 |
| 20260509154537 | 68 | 267 | 0.0 | 9.0 | 0.00 | 0.11 | 0.11 | 66 | 1007.5 |
| 20260509153041 | 67 | 106 | 2.0 | 6.0 | 0.00 | 0.11 | 0.11 | 70 | 1007.5 |
| 20260509151528 | 65 | 160 | 2.0 | 9.0 | 0.00 | 0.11 | 0.11 | 74 | 1007.3 |
| 20260509150031 | 64 | 144 | 3.0 | 11.0 | 0.00 | 0.11 | 0.11 | 76 | 1007.3 |
| 20260509144529 | 63 | 155 | 1.0 | 11.0 | 0.00 | 0.11 | 0.11 | 78 | 1007.3 |
| 20260509143020 | 61 | 140 | 2.0 | 10.0 | 0.00 | 0.11 | 0.11 | 87 | 1007.3 |
| 20260509141516 | 59 | 77 | 3.0 | 7.0 | 0.00 | 0.11 | 0.11 | 94 | 1007.1 |
| 20260509140011 | 57 | 141 | 0.0 | 3.0 | 0.00 | 0.11 | 0.11 | 96 | 1007.1 |
| 20260509134512 | 56 | 94 | 0.0 | 9.0 | 0.00 | 0.11 | 0.11 | 97 | 1007.1 |
| 20260509133014 | 56 | 132 | 1.0 | 5.0 | 0.00 | 0.11 | 0.11 | 97 | 1007.1 |
| 20260509131511 | 55 | 155 | 0.0 | 5.0 | 0.00 | 0.11 | 0.11 | 97 | 1007.2 |
| 20260509130006 | 55 | 152 | 0.0 | 0.0 | 0.00 | 0.11 | 0.11 | 97 | 1007.1 |
| 20260509124507 | 55 | 162 | 0.0 | 0.0 | 0.00 | 0.11 | 0.11 | 98 | 1007.2 |
| 20260509123005 | 54 | 146 | 0.0 | 0.0 | 0.00 | 0.11 | 0.11 | 97 | 1007.2 |
| 20260509121514 | 54 | 164 | 0.0 | 0.0 | 0.00 | 0.11 | 0.11 | 97 | 1007.2 |
| 20260509120006 | 54 | 188 | 0.0 | 0.0 | 0.00 | 0.11 | 0.11 | 97 | 1007.3 |
| 20260509114509 | 54 | 130 | 0.0 | 0.0 | 0.01 | 0.11 | 0.11 | 97 | 1007.1 |
| 20260509113003 | 54 | 130 | 0.0 | 0.0 | 0.01 | 0.11 | 0.11 | 97 | 1007.1 |
| 20260509111501 | 54 | 154 | 0.0 | 0.0 | 0.02 | 0.11 | 0.11 | 97 | 1007.1 |
| 20260509110107 | 54 | 179 | 1.0 | 4.0 | 0.03 | 0.11 | 0.11 | 97 | 1007.2 |
| 20260509110001 | 54 | 153 | 1.0 | 4.0 | 0.02 | 0.10 | 0.10 | 97 | 1007.2 |
| 20260509104559 | 54 | 120 | 0.0 | 0.0 | 0.03 | 0.10 | 0.10 | 97 | 1007.0 |
| 20260509103105 | 54 | 120 | 0.0 | 0.0 | 0.03 | 0.10 | 0.10 | 96 | 1006.8 |
| 20260509101623 | 54 | 133 | 0.0 | 0.0 | 0.03 | 0.09 | 0.09 | 96 | 1007.5 |
| 20260509100058 | 54 | 133 | 0.0 | 0.0 | 0.02 | 0.08 | 0.08 | 96 | 1007.4 |
| 20260509094603 | 54 | 133 | 0.0 | 0.0 | 0.02 | 0.07 | 0.07 | 96 | 1007.4 |
| 20260509093104 | 54 | 133 | 0.0 | 0.0 | 0.03 | 0.07 | 0.07 | 96 | 1007.3 |
| 20260509091553 | 54 | 107 | 0.0 | 0.0 | 0.03 | 0.06 | 0.06 | 96 | 1007.3 |
| 20260509090100 | 54 | 107 | 0.0 | 0.0 | 0.04 | 0.06 | 0.06 | 95 | 1007.5 |